Weather History for Montpelier, VT

Change the Weather History Date:

Wednesday, May 14, 2014

  Actual Average Record
Temperature  
Mean Temperature 62 °F 53 °F  
Max Temperature 77 °F 65 °F 85 °F (1961)
Min Temperature 47 °F 41 °F 26 °F (1967)
Degree Days  
Heating Degree Days 4    
Cooling Degree Days 0 0  
Month to date cooling degree days 0 0  
Year to date cooling degree days 0 1  
Growing Degree Days 10 (Base 50)    
Moisture  
Dew Point 45 °F    
Average Humidity 61    
Maximum Humidity 80    
Minimum Humidity 41    
Precipitation  
Precipitation T in 0.11 in 0.83 in (1964)
Month to date precipitation 1.05 1.45  
Year to date precipitation 10.51 10.99  
Sea Level Pressure  
Sea Level Pressure 30.24 in    
Wind  
Wind Speed 10 mph (South)    
Max Wind Speed 20 mph    
Max Gust Speed 25 mph    
Visibility 10 miles    
Events Rain    
T = Trace of Precipitation, MM = Missing Value Source: NWS Daily Summary

Daily Weather History Graph

Daily Weather History Graph

Search for Another Location

Airport:

Trip Planner

Search our weather history database for the weather conditions in past years. The results will help you decide how hot, cold, wet, or windy it might be!

Date:

Astronomy

May. 14, 2014 Rise Set
Actual Time 5:24 AM EDT 8:09 PM EDT
Civil Twilight 4:51 AM EDT 8:42 PM EDT
Nautical Twilight 4:09 AM EDT 9:25 PM EDT
Astronomical Twilight 3:20 AM EDT 10:14 PM EDT
Moon 8:10 PM EDT (5/14) 5:23 AM EDT (5/14)
Length of Visible Light 15h 51m
Length of Day
14h 44m
Full, 100% of the Moon is Illuminated
May 14
Full
May 14
Full
May 21
Last Quarter
May 28
New
Jun 5
First Quarter

Hourly Weather History & Observations

Time (EDT) Temp. Dew Point Humidity Pressure Visibility Wind Dir Wind Speed Gust Speed Precip Events Conditions
12:51 AM 48.0 °F 42.1 °F 80% 30.28 in 10.0 mi South 6.9 mph - N/A   Scattered Clouds
1:51 AM 48.2 °F 41.0 °F 76% 30.27 in 10.0 mi South 5.8 mph - N/A   Mostly Cloudy
2:51 AM 48.0 °F 41.0 °F 77% 30.28 in 10.0 mi South 9.2 mph - N/A   Mostly Cloudy
3:51 AM 46.9 °F 39.0 °F 74% 30.27 in 10.0 mi South 9.2 mph - N/A   Clear
4:51 AM 46.9 °F 37.9 °F 71% 30.25 in 10.0 mi South 5.8 mph - N/A   Clear
5:51 AM 46.9 °F 37.9 °F 71% 30.24 in 10.0 mi South 8.1 mph - N/A   Clear
6:51 AM 48.9 °F 37.0 °F 64% 30.28 in 10.0 mi South 4.6 mph - N/A   Scattered Clouds
7:51 AM 50.0 °F 39.0 °F 66% 30.28 in 10.0 mi South 11.5 mph 21.9 mph N/A   Scattered Clouds
8:17 AM 52.0 °F 39.9 °F 63% 30.27 in 10.0 mi South 10.4 mph - N/A   Overcast
8:40 AM 52.0 °F 39.9 °F 63% 30.26 in 10.0 mi South 11.5 mph - N/A   Overcast
8:51 AM 52.0 °F 41.0 °F 66% 30.28 in 10.0 mi SSW 11.5 mph - N/A   Mostly Cloudy
9:51 AM 54.0 °F 44.1 °F 69% 30.28 in 10.0 mi SSE 6.9 mph - 0.00 in Rain Light Rain
10:51 AM 60.8 °F 44.6 °F 55% 30.25 in 10.0 mi South 13.8 mph - N/A   Clear
11:51 AM 64.9 °F 45.0 °F 48% 30.25 in 10.0 mi SE 9.2 mph 18.4 mph N/A   Partly Cloudy
12:51 PM 69.8 °F 48.2 °F 46% 30.23 in 10.0 mi South 10.4 mph 18.4 mph N/A   Clear
1:51 PM 72.0 °F 50.0 °F 46% 30.22 in 10.0 mi South 10.4 mph 19.6 mph N/A   Partly Cloudy
2:51 PM 75.0 °F 51.1 °F 43% 30.20 in 10.0 mi South 12.7 mph - N/A   Clear
3:51 PM 75.9 °F 52.0 °F 43% 30.19 in 10.0 mi SSW 13.8 mph 23.0 mph N/A   Clear
4:51 PM 75.2 °F 50.0 °F 41% 30.17 in 10.0 mi SSE 18.4 mph 24.2 mph N/A   Clear
5:51 PM 75.9 °F 51.1 °F 42% 30.18 in 10.0 mi SSE 12.7 mph 24.2 mph N/A   Clear
6:51 PM 73.9 °F 48.0 °F 40% 30.19 in 10.0 mi South 12.7 mph - N/A   Clear
7:51 PM 70.0 °F 48.9 °F 47% 30.20 in 10.0 mi South 8.1 mph - N/A   Clear
8:51 PM 68.0 °F 48.9 °F 50% 30.22 in 10.0 mi SSE 15.0 mph - N/A   Clear
9:51 PM 64.9 °F 48.9 °F 56% 30.24 in 10.0 mi South 10.4 mph - N/A   Clear
10:51 PM 64.4 °F 48.2 °F 56% 30.23 in 10.0 mi South 9.2 mph 18.4 mph N/A   Clear
11:51 PM 62.1 °F 48.0 °F 60% 30.23 in 10.0 mi Calm Calm - N/A   Clear